Starlink 3614

operational
NORAD ID: 51771 Int'l Des: 2022-017 Owner: SPXS Country: US Constellation: starlink
LEOCIRCULAR

Über Starlink 3614

Beschreibung wird geladen...

Live-Position

3D-Globus wird geladen...

Nächste Überflüge

Höhenverlauf

Altitude vs Time

uPlot chart will show altitude changes over time

Zweizeiliger Elementsatz

1 51771U 22017D 25259.13345689 .00000136 00000-0 26649-4 0 9996
2 51771 53.2184 42.7230 0001233 86.6495 273.4638 15.08840547196259
Epoch: 16. Sept. 2025 • Age: 10 hours

Aktueller Status

Höhe 539.8 km
Geschwindigkeit 7.59 km/s
Subsatellitenpunkt 7.43°N, 140.96°W
Startdatum 25. Feb. 2022
Alter 3.5 years
Typ internet

Technische Details

Klassifizierung Payload
Masse 297.00 kg
Trockenmasse 275.00 kg
Gesamtmasse 297.00 kg
Länge 0.20 m
Durchmesser 2.80 m
Spannweite 9.00 m
Form Box + pan
Hersteller SPXS
Bus-Typ Starlink
Phasenstatus In Orbit
Besitzer/Staat SPXS/US

Große Konstellationen

Loading constellations...